User: anonymous   Login
Location: Hepcat Sky Observatory
(29.9800°N, 95.6500°W)
Time: 10:30:35
(UTC-05:00)
Language:

Cosmos 1602 Rocket - Orbit

View from above orbital plane
View from above orbital plane
View from above satellite
View from above satellite

Ground track
Ground track

The orbit data is extracted from the following two-line orbital elements,

1 15332U 84105B   15089.87576012  .00000916  00000-0  10927-3 0  9999
2 15332 082.5355 224.4246 0021963 155.2679 320.1905 14.83023332646627
Epoch (UTC): 30 March 2015 21:01:05
Eccentricity: 0.0021963
inclination: 82.5355°
perigee height: 604 km
apogee height: 635 km
right ascension of ascending node: 224.4246°
argument of perigee: 155.2679°
revolutions per day: 14.83023332
mean anomaly at epoch: 320.1905°
orbit number at epoch: 64662

The dashed part of the orbit path shows where the satellite is in the earth's shadow,  

DLR